AFR610 LFPG-TFFF

Flight info

Callsign AFR610
Flight time 8h 19m
Altitude 34000
Route LGL UN491 UPALO/N0478F330 DCT FEJAC DCT BADUR DCT REGHI/M083F340 DCT ETIKI DCT 48N015W 48N020W 47N030W 45N035W 42N040W/M083F360 38N045W 32N050W 24N055W DCT DRDGE/N0476F360 DCT UMAMU UMAMU2D
Aircraft B77W/H-SDE1E2E3FGHIJ2J3J4J5M1RWXY/LB1D1

Departure

Time 2026-04-22 10:57
Airport Charles de Gaulle International Airport (LFPG)

Arrival

Time 2026-04-22 19:17
Airport Martinique Aimé Césaire International Airport (TFFF)
Time Latitude Longitude Altitude Speed Heading
2026-04-22 10:08 49.00190 2.56580 359 ft 0 kts 17°
2026-04-22 10:48 49.00170 2.56573 361 ft 4 kts 354°
2026-04-22 10:48 49.00146 2.56586 368 ft 4 kts 322°
2026-04-22 10:48 49.00128 2.56615 368 ft 4 kts 301°
2026-04-22 10:48 49.00117 2.56651 365 ft 4 kts 279°
2026-04-22 10:49 49.00115 2.56670 361 ft 0 kts 266°
2026-04-22 10:51 49.00115 2.56662 363 ft 2 kts 266°
2026-04-22 10:52 49.00107 2.56618 368 ft 6 kts 246°
2026-04-22 10:52 49.00061 2.56577 366 ft 10 kts 190°
2026-04-22 10:52 48.99978 2.56578 366 ft 14 kts 180°
2026-04-22 10:52 48.99913 2.56473 366 ft 16 kts 261°
2026-04-22 10:53 48.99904 2.56279 362 ft 20 kts 265°
2026-04-22 10:53 48.99889 2.56045 359 ft 24 kts 266°
2026-04-22 10:53 48.99919 2.55778 365 ft 27 kts 288°
2026-04-22 10:53 48.99901 2.55498 367 ft 28 kts 255°
2026-04-22 10:54 48.99883 2.55206 362 ft 28 kts 266°
2026-04-22 10:54 48.99819 2.55048 365 ft 11 kts 174°
2026-04-22 10:54 48.99741 2.55079 365 ft 12 kts 165°
2026-04-22 10:54 48.99670 2.55133 367 ft 12 kts 134°
2026-04-22 10:55 48.99628 2.55237 366 ft 12 kts 117°
2026-04-22 10:55 48.99592 2.55347 363 ft 12 kts 117°
2026-04-22 10:55 48.99580 2.55445 358 ft 0 kts 86°
2026-04-22 10:55 48.99580 2.55446 358 ft 0 kts 86°
2026-04-22 10:56 48.99580 2.55448 359 ft 3 kts 86°
2026-04-22 10:56 48.99593 2.55684 357 ft 53 kts 85°
2026-04-22 10:56 48.99640 2.56575 366 ft 114 kts 85°
2026-04-22 10:56 48.99720 2.58057 361 ft 163 kts 84°
2026-04-22 10:57 48.99838 2.59927 509 ft 186 kts 85°
2026-04-22 10:57 48.99935 2.61950 970 ft 198 kts 86°
2026-04-22 10:57 49.00044 2.64081 1571 ft 204 kts 86°
2026-04-22 10:57 49.00174 2.66220 2421 ft 200 kts 84°
2026-04-22 10:58 49.00341 2.68298 3205 ft 197 kts 84°
2026-04-22 10:58 49.00509 2.70389 3749 ft 203 kts 86°
2026-04-22 10:58 49.00671 2.72548 4216 ft 212 kts 86°
2026-04-22 10:58 49.00779 2.74876 4647 ft 224 kts 90°
2026-04-22 10:59 49.00694 2.77318 5097 ft 236 kts 97°
2026-04-22 10:59 49.00460 2.79744 5888 ft 231 kts 98°
2026-04-22 10:59 49.00241 2.82130 6660 ft 229 kts 96°
2026-04-22 10:59 49.00045 2.84606 6996 ft 242 kts 96°
2026-04-22 11:00 48.99847 2.87205 7449 ft 250 kts 96°
2026-04-22 11:00 48.99650 2.89829 8169 ft 247 kts 96°
2026-04-22 11:00 48.99411 2.92387 8974 ft 244 kts 99°
2026-04-22 11:00 48.99087 2.94975 9432 ft 252 kts 100°
2026-04-22 11:01 48.98814 2.96742 9699 ft 256 kts 109°
2026-04-22 11:01 48.97346 2.99597 10345 ft 267 kts 140°
2026-04-22 11:01 48.96250 3.00593 10629 ft 279 kts 151°
2026-04-22 11:01 48.94313 3.01364 10746 ft 309 kts 173°
2026-04-22 11:02 48.92095 3.00909 10920 ft 337 kts 196°
2026-04-22 11:02 48.89975 2.99110 11076 ft 365 kts 217°
2026-04-22 11:02 48.88275 2.96115 11330 ft 385 kts 236°
2026-04-22 11:02 48.87254 2.92291 11832 ft 395 kts 256°
2026-04-22 11:03 48.86735 2.88177 12634 ft 398 kts 262°
2026-04-22 11:03 48.86330 2.83990 13499 ft 401 kts 263°
2026-04-22 11:03 48.85897 2.79818 14480 ft 399 kts 262°
2026-04-22 11:03 48.85400 2.75648 15217 ft 403 kts 260°
2026-04-22 11:04 48.84841 2.71452 15961 ft 407 kts 260°
2026-04-22 11:04 48.84243 2.67252 16811 ft 408 kts 260°
2026-04-22 11:04 48.83626 2.63045 17637 ft 409 kts 261°
2026-04-22 11:04 48.82999 2.58829 18523 ft 408 kts 261°
2026-04-22 11:05 48.82372 2.54631 19283 ft 408 kts 261°
2026-04-22 11:05 48.81745 2.50420 19907 ft 411 kts 261°
2026-04-22 11:05 48.81111 2.46164 20521 ft 414 kts 261°
2026-04-22 11:05 48.80473 2.41891 21165 ft 417 kts 261°
2026-04-22 11:06 48.79959 2.37582 21797 ft 413 kts 270°
2026-04-22 11:06 48.79884 2.33283 22373 ft 413 kts 274°
2026-04-22 11:06 48.79933 2.28912 22974 ft 416 kts 275°
2026-04-22 11:06 48.80005 2.24520 23608 ft 417 kts 275°
2026-04-22 11:07 48.80067 2.20105 24161 ft 419 kts 275°
2026-04-22 11:07 48.80110 2.15671 24591 ft 423 kts 274°
2026-04-22 11:07 48.80136 2.11181 24995 ft 428 kts 274°
2026-04-22 11:07 48.80147 2.06662 25471 ft 430 kts 274°
2026-04-22 11:08 48.80149 2.02117 25978 ft 431 kts 274°
2026-04-22 11:08 48.80146 1.97648 26455 ft 433 kts 274°
2026-04-22 11:08 48.80139 1.93071 26894 ft 435 kts 274°
2026-04-22 11:08 48.80131 1.88465 27319 ft 438 kts 274°
2026-04-22 11:09 48.80121 1.83828 27725 ft 440 kts 274°
2026-04-22 11:09 48.80110 1.79175 28143 ft 442 kts 274°
2026-04-22 11:09 48.80096 1.74503 28521 ft 444 kts 274°
2026-04-22 11:09 48.80082 1.69790 28760 ft 450 kts 273°
2026-04-22 11:10 48.80065 1.65023 29033 ft 454 kts 273°
2026-04-22 11:10 48.80046 1.60234 29418 ft 455 kts 272°
2026-04-22 11:10 48.80024 1.55442 29876 ft 454 kts 272°
2026-04-22 11:10 48.80000 1.50669 30392 ft 451 kts 272°
2026-04-22 11:11 48.79974 1.45929 30886 ft 448 kts 272°
2026-04-22 11:11 48.79947 1.41280 31322 ft 445 kts 272°
2026-04-22 11:11 48.79918 1.36596 31728 ft 444 kts 272°
2026-04-22 11:11 48.79889 1.31925 32116 ft 442 kts 272°
2026-04-22 11:12 48.79858 1.27260 32380 ft 443 kts 272°
2026-04-22 11:12 48.79825 1.22569 32655 ft 444 kts 272°
2026-04-22 11:12 48.79789 1.17901 33061 ft 441 kts 271°
2026-04-22 11:12 48.79751 1.13261 33514 ft 438 kts 271°
2026-04-22 11:13 48.79712 1.08664 33918 ft 435 kts 271°
2026-04-22 11:13 48.79671 1.04076 34121 ft 437 kts 271°
2026-04-22 11:13 48.79630 0.99530 34168 ft 440 kts 271°
2026-04-22 11:14 48.79540 0.90179 34175 ft 446 kts 271°
2026-04-22 11:14 48.79439 0.80707 34162 ft 452 kts 271°
2026-04-22 11:15 48.79329 0.71128 34165 ft 456 kts 271°
2026-04-22 11:15 48.79212 0.61484 34153 ft 458 kts 271°
2026-04-22 11:16 48.79105 0.51817 34148 ft 458 kts 273°
2026-04-22 11:16 48.79593 0.42208 34132 ft 456 kts 277°
2026-04-22 11:17 48.80314 0.32667 34134 ft 455 kts 277°
2026-04-22 11:17 48.80963 0.23125 34135 ft 454 kts 277°
2026-04-22 11:18 48.81547 0.13599 34135 ft 453 kts 276°
2026-04-22 11:18 48.82108 0.04135 34137 ft 453 kts 276°
2026-04-22 11:19 48.82663 -0.05294 34133 ft 452 kts 276°
2026-04-22 11:19 48.83215 -0.14800 34146 ft 453 kts 276°
2026-04-22 11:20 48.83763 -0.24328 34147 ft 453 kts 276°
2026-04-22 11:20 48.84286 -0.33869 34153 ft 454 kts 275°
2026-04-22 11:21 48.84789 -0.43434 34146 ft 455 kts 275°
2026-04-22 11:21 48.85286 -0.53012 34150 ft 455 kts 275°
2026-04-22 11:22 48.85778 -0.62595 34143 ft 455 kts 275°
2026-04-22 11:22 48.86264 -0.72187 34133 ft 455 kts 275°
2026-04-22 11:23 48.86740 -0.81765 34137 ft 455 kts 275°
2026-04-22 11:23 48.87210 -0.91360 34127 ft 455 kts 275°
2026-04-22 11:24 48.87666 -1.00842 34130 ft 455 kts 275°
2026-04-22 11:24 48.88119 -1.10436 34131 ft 456 kts 275°
2026-04-22 11:25 48.88566 -1.20047 34139 ft 456 kts 275°
2026-04-22 11:25 48.89003 -1.29660 34130 ft 456 kts 274°
2026-04-22 11:26 48.89434 -1.39286 34129 ft 457 kts 274°
2026-04-22 11:26 48.89859 -1.48924 34128 ft 457 kts 274°
2026-04-22 11:27 48.90280 -1.58521 34124 ft 458 kts 274°
2026-04-22 11:27 48.90700 -1.68235 34131 ft 458 kts 273°
2026-04-22 11:28 48.90403 -1.77840 34132 ft 459 kts 263°
2026-04-22 11:28 48.89114 -1.87345 34127 ft 459 kts 257°
2026-04-22 11:29 48.87550 -1.96766 34116 ft 460 kts 257°
2026-04-22 11:29 48.86014 -2.06087 34115 ft 460 kts 257°
2026-04-22 11:30 48.84474 -2.15510 34111 ft 460 kts 257°
2026-04-22 11:30 48.82932 -2.24929 34116 ft 459 kts 257°
2026-04-22 11:31 48.81383 -2.34341 34114 ft 459 kts 257°
2026-04-22 11:31 48.79827 -2.43736 34110 ft 459 kts 257°
2026-04-22 11:32 48.78265 -2.53126 34108 ft 459 kts 257°
2026-04-22 11:32 48.76698 -2.62441 34110 ft 459 kts 256°
2026-04-22 11:33 48.75100 -2.71808 34115 ft 459 kts 256°
2026-04-22 11:33 48.73497 -2.81171 34115 ft 459 kts 256°
2026-04-22 11:34 48.71888 -2.90535 34089 ft 459 kts 256°
2026-04-22 11:34 48.70479 -2.99963 34097 ft 459 kts 260°
2026-04-22 11:35 48.69381 -3.09397 34086 ft 460 kts 259°
2026-04-22 11:35 48.68267 -3.18944 34109 ft 461 kts 259°
2026-04-22 11:36 48.67131 -3.28491 34101 ft 461 kts 259°
2026-04-22 11:36 48.65979 -3.38042 34112 ft 461 kts 259°
2026-04-22 11:37 48.64818 -3.47593 34109 ft 462 kts 259°
2026-04-22 11:37 48.63654 -3.57093 34102 ft 462 kts 258°
2026-04-22 11:38 48.62474 -3.66656 34105 ft 463 kts 258°
2026-04-22 11:38 48.60690 -3.80991 34074 ft 463 kts 258°
2026-04-22 11:39 48.59489 -3.90553 34086 ft 463 kts 258°
2026-04-22 11:39 48.58284 -4.00081 34069 ft 464 kts 258°
2026-04-22 11:40 48.57077 -4.09563 34074 ft 463 kts 258°
2026-04-22 11:40 48.55851 -4.19125 34072 ft 464 kts 258°
2026-04-22 11:41 48.54616 -4.28686 34073 ft 464 kts 258°
2026-04-22 11:41 48.53375 -4.38240 34086 ft 465 kts 257°
2026-04-22 11:42 48.52130 -4.47752 34070 ft 465 kts 257°
2026-04-22 11:42 48.50861 -4.57378 34077 ft 465 kts 257°
2026-04-22 11:43 48.49601 -4.66873 34077 ft 464 kts 257°
2026-04-22 11:43 48.48324 -4.76438 34068 ft 465 kts 257°
2026-04-22 11:44 48.47040 -4.85983 34069 ft 464 kts 257°
2026-04-22 11:44 48.45750 -4.95514 34064 ft 464 kts 257°
2026-04-22 11:45 48.44467 -5.04930 34065 ft 464 kts 257°
2026-04-22 11:45 48.43161 -5.14449 34067 ft 464 kts 257°
2026-04-22 11:46 48.41856 -5.23905 34064 ft 465 kts 256°
2026-04-22 11:46 48.40532 -5.33439 34067 ft 466 kts 256°
2026-04-22 11:47 48.39196 -5.42994 34067 ft 467 kts 256°
2026-04-22 11:47 48.37850 -5.52555 34063 ft 468 kts 256°
2026-04-22 11:48 48.36493 -5.62135 34075 ft 469 kts 256°
2026-04-22 11:48 48.35126 -5.71727 34069 ft 470 kts 256°
2026-04-22 11:49 48.33748 -5.81329 34069 ft 470 kts 256°
2026-04-22 11:49 48.32595 -5.89324 34062 ft 471 kts 256°
2026-04-22 11:50 48.31200 -5.98935 34065 ft 471 kts 255°
2026-04-22 11:50 48.29810 -6.08460 34070 ft 471 kts 255°
2026-04-22 11:51 48.28397 -6.18076 34065 ft 472 kts 255°
2026-04-22 11:51 48.26976 -6.27684 34057 ft 472 kts 255°
2026-04-22 11:52 48.25547 -6.37292 34052 ft 471 kts 255°
2026-04-22 11:52 48.24112 -6.46882 34071 ft 471 kts 255°
2026-04-22 11:53 48.22670 -6.56453 34055 ft 470 kts 255°
2026-04-22 11:53 48.21223 -6.66007 34052 ft 470 kts 255°
2026-04-22 11:54 48.19768 -6.75551 34049 ft 469 kts 255°
2026-04-22 11:54 48.18307 -6.85077 34061 ft 469 kts 254°
2026-04-22 11:55 48.16838 -6.94601 34048 ft 469 kts 254°
2026-04-22 11:55 48.15376 -7.04025 34030 ft 469 kts 254°
2026-04-22 11:56 48.13893 -7.13529 34029 ft 468 kts 254°
2026-04-22 11:56 48.12404 -7.23013 34029 ft 468 kts 254°
2026-04-22 11:57 48.10906 -7.32501 34037 ft 468 kts 253°
2026-04-22 11:57 48.09401 -7.41978 34019 ft 469 kts 253°
2026-04-22 11:58 48.07896 -7.51400 34013 ft 469 kts 253°
2026-04-22 11:58 48.06375 -7.60870 34023 ft 469 kts 253°
2026-04-22 11:59 48.04846 -7.70337 34043 ft 469 kts 253°
2026-04-22 11:59 48.03309 -7.79800 34013 ft 468 kts 253°
2026-04-22 12:00 48.01770 -7.89231 34008 ft 467 kts 253°
2026-04-22 12:00 48.00372 -7.98703 34011 ft 469 kts 258°
2026-04-22 12:01 47.99939 -8.08337 34003 ft 473 kts 266°
2026-04-22 12:01 48.00004 -8.18164 34005 ft 472 kts 266°
2026-04-22 12:02 48.00049 -8.27945 33997 ft 471 kts 266°
2026-04-22 12:02 48.00059 -8.37705 33994 ft 470 kts 265°
2026-04-22 12:03 48.00054 -8.47448 33993 ft 469 kts 265°
2026-04-22 12:03 48.00042 -8.57184 34007 ft 468 kts 265°
2026-04-22 12:04 48.00023 -8.66894 33995 ft 467 kts 265°
2026-04-22 12:04 48.00001 -8.76577 33990 ft 466 kts 266°
2026-04-22 12:05 48.00197 -8.86244 33985 ft 466 kts 268°
2026-04-22 12:05 48.00500 -8.95854 33991 ft 466 kts 268°
2026-04-22 12:06 48.00777 -9.05438 33982 ft 466 kts 268°
2026-04-22 12:06 48.01021 -9.15114 33982 ft 466 kts 267°
2026-04-22 12:07 48.01245 -9.24808 33975 ft 467 kts 267°
2026-04-22 12:07 48.01460 -9.34500 33975 ft 467 kts 267°
2026-04-22 12:08 48.01668 -9.44203 33957 ft 468 kts 266°
2026-04-22 12:08 48.01869 -9.53898 33962 ft 467 kts 266°
2026-04-22 12:09 48.02062 -9.63585 33964 ft 466 kts 266°
2026-04-22 12:09 48.02246 -9.73245 33951 ft 465 kts 266°
2026-04-22 12:10 48.02421 -9.82905 34004 ft 465 kts 265°
2026-04-22 12:10 48.02588 -9.92589 33948 ft 467 kts 265°
2026-04-22 12:11 48.02746 -10.02142 33942 ft 467 kts 265°
2026-04-22 12:11 48.02898 -10.11848 33932 ft 468 kts 265°
2026-04-22 12:12 48.03042 -10.21503 33935 ft 468 kts 265°
2026-04-22 12:12 48.03178 -10.31234 33930 ft 469 kts 265°
2026-04-22 12:13 48.03306 -10.40969 33926 ft 468 kts 265°
2026-04-22 12:13 48.03426 -10.50686 33912 ft 467 kts 265°
2026-04-22 12:14 48.03537 -10.60398 33903 ft 467 kts 264°
2026-04-22 12:14 48.03640 -10.70087 33945 ft 466 kts 264°
2026-04-22 12:15 48.03735 -10.79766 33906 ft 465 kts 264°
2026-04-22 12:15 48.03822 -10.89411 33889 ft 464 kts 264°
2026-04-22 12:16 48.03900 -10.99033 33881 ft 463 kts 264°
2026-04-22 12:16 48.03968 -11.08510 33896 ft 462 kts 264°
2026-04-22 12:17 48.04029 -11.18124 33882 ft 463 kts 263°
2026-04-22 12:17 48.04082 -11.27690 33867 ft 463 kts 263°
2026-04-22 12:18 48.04129 -11.37295 33854 ft 462 kts 263°
2026-04-22 12:18 48.04168 -11.46876 33851 ft 461 kts 263°
2026-04-22 12:19 48.04197 -11.56442 33913 ft 461 kts 263°
2026-04-22 12:19 48.04216 -11.66051 33838 ft 463 kts 263°
2026-04-22 12:20 48.04231 -11.75661 33842 ft 462 kts 263°
2026-04-22 12:20 48.04238 -11.85262 33844 ft 462 kts 263°
2026-04-22 12:21 48.04235 -11.94886 33839 ft 463 kts 263°
2026-04-22 12:21 48.04224 -12.04392 33826 ft 465 kts 263°
2026-04-22 12:22 48.04205 -12.14000 33829 ft 466 kts 263°
2026-04-22 12:22 48.04179 -12.23710 33815 ft 467 kts 263°
2026-04-22 12:23 48.04145 -12.33436 33806 ft 468 kts 263°
2026-04-22 12:23 48.04102 -12.43168 33853 ft 469 kts 263°
2026-04-22 12:24 48.04051 -12.52935 33809 ft 470 kts 263°
2026-04-22 12:24 48.03991 -12.62724 33796 ft 471 kts 263°
2026-04-22 12:25 48.03923 -12.72518 33786 ft 471 kts 263°
2026-04-22 12:25 48.03848 -12.82297 33790 ft 471 kts 263°
2026-04-22 12:26 48.03763 -12.92082 33794 ft 471 kts 263°
2026-04-22 12:26 48.03671 -13.01741 33781 ft 471 kts 263°
2026-04-22 12:27 48.03570 -13.11537 33788 ft 471 kts 263°
2026-04-22 12:27 48.03461 -13.21251 33778 ft 471 kts 262°
2026-04-22 12:28 48.03344 -13.31027 33768 ft 470 kts 262°
2026-04-22 12:28 48.03218 -13.40795 33766 ft 470 kts 262°
2026-04-22 12:29 48.03084 -13.50567 33767 ft 470 kts 262°
2026-04-22 12:29 48.02941 -13.60332 33761 ft 470 kts 262°
2026-04-22 12:30 48.02712 -13.74974 33778 ft 470 kts 262°
2026-04-22 12:31 48.02548 -13.84754 33756 ft 471 kts 262°
2026-04-22 12:31 48.02377 -13.94539 33751 ft 471 kts 262°
2026-04-22 12:32 48.02198 -14.04244 33745 ft 472 kts 262°
2026-04-22 12:32 48.01913 -14.18939 33769 ft 472 kts 262°
2026-04-22 12:33 48.01711 -14.28759 33743 ft 473 kts 262°
2026-04-22 12:33 48.01501 -14.38573 33730 ft 473 kts 262°
2026-04-22 12:34 48.01285 -14.48328 33727 ft 473 kts 262°
2026-04-22 12:34 48.01059 -14.58139 33720 ft 473 kts 262°
2026-04-22 12:35 48.00823 -14.67974 33723 ft 474 kts 262°
2026-04-22 12:35 48.00579 -14.77821 33711 ft 475 kts 262°
2026-04-22 12:36 48.00327 -14.87686 33712 ft 476 kts 262°
2026-04-22 12:36 48.00067 -14.97558 33702 ft 476 kts 262°
2026-04-22 12:37 48.00097 -15.07373 33718 ft 480 kts 265°
2026-04-22 12:37 48.00286 -15.15667 33701 ft 480 kts 266°
2026-04-22 12:38 48.00514 -15.25629 33691 ft 480 kts 265°
2026-04-22 12:38 48.00717 -15.35598 33681 ft 480 kts 265°
2026-04-22 12:39 48.00986 -15.50548 33687 ft 481 kts 265°
2026-04-22 12:40 48.01153 -15.60546 33689 ft 482 kts 265°
2026-04-22 12:40 48.01312 -15.70583 33670 ft 485 kts 266°
2026-04-22 12:41 48.01488 -15.82330 33664 ft 488 kts 266°
2026-04-22 12:41 48.01609 -15.90841 33667 ft 490 kts 266°
2026-04-22 12:42 48.01744 -16.00876 33654 ft 493 kts 266°
2026-04-22 12:42 48.01872 -16.11139 33650 ft 495 kts 266°
2026-04-22 12:43 48.01992 -16.21421 33635 ft 496 kts 266°
2026-04-22 12:43 48.02103 -16.31714 33634 ft 496 kts 266°
2026-04-22 12:44 48.02204 -16.42011 33615 ft 496 kts 266°
2026-04-22 12:44 48.02297 -16.52304 33633 ft 495 kts 266°
2026-04-22 12:45 48.02379 -16.62579 33612 ft 495 kts 266°
2026-04-22 12:45 48.02453 -16.72851 33613 ft 494 kts 265°
2026-04-22 12:46 48.02517 -16.83113 33610 ft 494 kts 266°
2026-04-22 12:46 48.02571 -16.93373 33605 ft 495 kts 266°
2026-04-22 12:47 48.02616 -17.03483 33591 ft 495 kts 266°
2026-04-22 12:47 48.02653 -17.13785 33595 ft 497 kts 266°
2026-04-22 12:48 48.02680 -17.24129 33586 ft 499 kts 266°
2026-04-22 12:48 48.02699 -17.34533 33577 ft 502 kts 266°
2026-04-22 12:49 48.02708 -17.44964 33569 ft 503 kts 266°
2026-04-22 12:49 48.02709 -17.55424 33569 ft 504 kts 266°
2026-04-22 12:50 48.02699 -17.65904 33557 ft 504 kts 266°
2026-04-22 12:50 48.02680 -17.76379 33554 ft 504 kts 266°
2026-04-22 12:51 48.02652 -17.86842 33543 ft 503 kts 265°
2026-04-22 12:51 48.02614 -17.97295 33534 ft 503 kts 265°
2026-04-22 12:52 48.02567 -18.07619 33529 ft 502 kts 265°
2026-04-22 12:52 48.02510 -18.18041 33532 ft 502 kts 265°
2026-04-22 12:53 48.02443 -18.28469 33530 ft 502 kts 265°
2026-04-22 12:53 48.02368 -18.38890 33514 ft 502 kts 265°
2026-04-22 12:54 48.02283 -18.49324 33500 ft 502 kts 265°
2026-04-22 12:54 48.02187 -18.59774 33510 ft 504 kts 265°
2026-04-22 12:55 48.02081 -18.70235 33493 ft 510 kts 265°
2026-04-22 12:55 48.01965 -18.80867 33494 ft 513 kts 265°
2026-04-22 12:56 48.01839 -18.91547 33484 ft 516 kts 264°
2026-04-22 12:56 48.01705 -19.02123 33482 ft 516 kts 264°
2026-04-22 12:57 48.01560 -19.12855 33472 ft 517 kts 265°
2026-04-22 12:57 48.01403 -19.23587 33453 ft 517 kts 265°
2026-04-22 12:58 48.01237 -19.34304 33446 ft 516 kts 265°
2026-04-22 12:58 48.01062 -19.44993 33441 ft 514 kts 264°
2026-04-22 12:59 48.00876 -19.55673 33450 ft 514 kts 266°
2026-04-22 12:59 48.00680 -19.66335 33434 ft 513 kts 265°
2026-04-22 13:00 48.00475 -19.76988 33430 ft 513 kts 265°
2026-04-22 13:00 48.00261 -19.87621 33434 ft 512 kts 265°
2026-04-22 13:01 48.00040 -19.98208 33434 ft 515 kts 264°
2026-04-22 13:01 47.99655 -20.08776 33434 ft 515 kts 263°
2026-04-22 13:02 47.98996 -20.19441 33432 ft 517 kts 260°
2026-04-22 13:02 47.98313 -20.30142 33430 ft 518 kts 262°
2026-04-22 13:03 47.97661 -20.40861 33428 ft 520 kts 263°
2026-04-22 13:03 47.97028 -20.51618 33424 ft 521 kts 261°
2026-04-22 13:04 47.96389 -20.62384 33426 ft 521 kts 261°
2026-04-22 13:04 47.95735 -20.73148 33424 ft 521 kts 261°
2026-04-22 13:05 47.95063 -20.83906 33429 ft 522 kts 261°
2026-04-22 13:05 47.94383 -20.94694 33438 ft 523 kts 263°
2026-04-22 13:06 47.93700 -21.05398 33424 ft 524 kts 262°
2026-04-22 13:06 47.93000 -21.16213 33421 ft 524 kts 261°
2026-04-22 13:07 47.92285 -21.27028 33434 ft 524 kts 263°
2026-04-22 13:07 47.91565 -21.37796 33418 ft 526 kts 262°
2026-04-22 13:08 47.90830 -21.48659 33404 ft 527 kts 263°
2026-04-22 13:08 47.90084 -21.59533 33419 ft 527 kts 262°
2026-04-22 13:09 47.89327 -21.70406 33414 ft 529 kts 261°
2026-04-22 13:09 47.88555 -21.81320 33411 ft 530 kts 262°
2026-04-22 13:10 47.87772 -21.92269 33420 ft 531 kts 263°
2026-04-22 13:10 47.86987 -22.03086 33405 ft 532 kts 261°
2026-04-22 13:11 47.86182 -22.14032 33413 ft 531 kts 262°
2026-04-22 13:11 47.85371 -22.24892 33420 ft 531 kts 262°
2026-04-22 13:12 47.84544 -22.35836 33418 ft 532 kts 261°
2026-04-22 13:12 47.83709 -22.46778 33399 ft 533 kts 261°
2026-04-22 13:13 47.82863 -22.57727 33408 ft 532 kts 262°
2026-04-22 13:13 47.82003 -22.68682 33413 ft 534 kts 262°
2026-04-22 13:14 47.81135 -22.79622 33393 ft 533 kts 262°
2026-04-22 13:14 47.80252 -22.90571 33391 ft 533 kts 262°
2026-04-22 13:15 47.79369 -23.01432 33408 ft 534 kts 262°
2026-04-22 13:15 47.78467 -23.12420 33409 ft 536 kts 262°
2026-04-22 13:16 47.77551 -23.23400 33401 ft 534 kts 261°
2026-04-22 13:16 47.76626 -23.34370 33404 ft 535 kts 262°
2026-04-22 13:17 47.75688 -23.45369 33416 ft 538 kts 262°
2026-04-22 13:17 47.74736 -23.56415 33398 ft 540 kts 262°
2026-04-22 13:18 47.73770 -23.67482 33395 ft 540 kts 262°
2026-04-22 13:18 47.72802 -23.78457 33426 ft 540 kts 262°
2026-04-22 13:19 47.71805 -23.89621 33404 ft 544 kts 262°
2026-04-22 13:19 47.70811 -24.00645 33405 ft 544 kts 262°
2026-04-22 13:20 47.69803 -24.11706 33422 ft 542 kts 262°
2026-04-22 13:20 47.68778 -24.22807 33418 ft 543 kts 262°
2026-04-22 13:21 47.67740 -24.33940 33397 ft 546 kts 262°
2026-04-22 13:21 47.66688 -24.45102 33419 ft 546 kts 262°
2026-04-22 13:22 47.65625 -24.56268 33434 ft 546 kts 262°
2026-04-22 13:22 47.64555 -24.67390 33433 ft 545 kts 262°
2026-04-22 13:23 47.63472 -24.78527 33421 ft 547 kts 262°
2026-04-22 13:23 47.62375 -24.89700 33425 ft 548 kts 262°
2026-04-22 13:24 47.61274 -25.00779 33428 ft 548 kts 262°
2026-04-22 13:24 47.60153 -25.11949 33425 ft 549 kts 262°
2026-04-22 13:25 47.59027 -25.23072 33433 ft 550 kts 262°
2026-04-22 13:25 47.57878 -25.34304 33452 ft 552 kts 262°
2026-04-22 13:26 47.56715 -25.45559 33449 ft 553 kts 262°
2026-04-22 13:26 47.55540 -25.56810 33437 ft 553 kts 262°
2026-04-22 13:27 47.54355 -25.68060 33433 ft 553 kts 262°
2026-04-22 13:27 47.53160 -25.79288 33458 ft 552 kts 262°
2026-04-22 13:28 47.51957 -25.90489 33461 ft 551 kts 262°
2026-04-22 13:28 47.50942 -25.99855 33456 ft 550 kts 262°
2026-04-22 13:29 47.49744 -26.10813 33460 ft 549 kts 262°
2026-04-22 13:29 47.48515 -26.21955 33463 ft 549 kts 262°
2026-04-22 13:30 47.47276 -26.33083 33453 ft 549 kts 262°
2026-04-22 13:30 47.46024 -26.44224 33463 ft 549 kts 262°
2026-04-22 13:31 47.44762 -26.55358 33472 ft 550 kts 262°
2026-04-22 13:31 47.43487 -26.66503 33488 ft 550 kts 262°
2026-04-22 13:32 47.42200 -26.77653 33478 ft 550 kts 262°
2026-04-22 13:32 47.40905 -26.88768 33455 ft 549 kts 262°
2026-04-22 13:33 47.39601 -26.99874 33489 ft 548 kts 262°
2026-04-22 13:33 47.38303 -27.10831 33498 ft 548 kts 262°
2026-04-22 13:34 47.36990 -27.21811 33500 ft 547 kts 262°
2026-04-22 13:34 47.35658 -27.32861 33514 ft 547 kts 262°
2026-04-22 13:35 47.34317 -27.43894 33515 ft 546 kts 262°
2026-04-22 13:35 47.32965 -27.54929 33517 ft 546 kts 262°
2026-04-22 13:36 47.31603 -27.65943 33517 ft 546 kts 263°
2026-04-22 13:36 47.30233 -27.76944 33531 ft 546 kts 263°
2026-04-22 13:37 47.28851 -27.87943 33526 ft 546 kts 262°
2026-04-22 13:37 47.27459 -27.98931 33522 ft 546 kts 263°
2026-04-22 13:38 47.26072 -28.09794 33553 ft 546 kts 263°
2026-04-22 13:38 47.23958 -28.26192 33554 ft 546 kts 263°
2026-04-22 13:39 47.22529 -28.37171 33556 ft 546 kts 263°
2026-04-22 13:39 47.21088 -28.48150 33549 ft 547 kts 263°
2026-04-22 13:40 47.19636 -28.59130 33542 ft 547 kts 263°
2026-04-22 13:40 47.18171 -28.70119 33576 ft 549 kts 263°
2026-04-22 13:41 47.16689 -28.81158 33548 ft 552 kts 263°
2026-04-22 13:41 47.15190 -28.92227 33578 ft 553 kts 263°
2026-04-22 13:42 47.13696 -29.03182 33586 ft 555 kts 263°
2026-04-22 13:42 47.12167 -29.14309 33591 ft 557 kts 263°
2026-04-22 13:43 47.10623 -29.25449 33589 ft 557 kts 263°
2026-04-22 13:43 47.09069 -29.36585 33604 ft 557 kts 263°
2026-04-22 13:44 47.07505 -29.47710 33607 ft 557 kts 263°
2026-04-22 13:44 47.05931 -29.58823 33616 ft 556 kts 263°
2026-04-22 13:45 47.04349 -29.69913 33612 ft 555 kts 263°
2026-04-22 13:45 47.02759 -29.80984 33619 ft 555 kts 263°
2026-04-22 13:46 47.01158 -29.92043 33632 ft 555 kts 262°
2026-04-22 13:46 46.98882 -30.02740 33625 ft 561 kts 251°
2026-04-22 13:47 46.95415 -30.12919 33650 ft 564 kts 244°
2026-04-22 13:47 46.91628 -30.22969 33630 ft 564 kts 244°
2026-04-22 13:48 46.87861 -30.33030 33640 ft 564 kts 244°
2026-04-22 13:48 46.84128 -30.43106 33647 ft 564 kts 244°
2026-04-22 13:49 46.80401 -30.53175 33644 ft 564 kts 244°
2026-04-22 13:49 46.76659 -30.63237 33651 ft 564 kts 244°
2026-04-22 13:50 46.72911 -30.73267 33652 ft 563 kts 244°
2026-04-22 13:50 46.69153 -30.83282 33664 ft 563 kts 244°
2026-04-22 13:51 46.65388 -30.93277 33667 ft 562 kts 244°
2026-04-22 13:51 46.61671 -31.03109 33655 ft 561 kts 244°
2026-04-22 13:52 46.57909 -31.13025 33682 ft 559 kts 244°
2026-04-22 13:52 46.54150 -31.22896 33685 ft 558 kts 244°
2026-04-22 13:53 46.50391 -31.32735 33689 ft 556 kts 244°
2026-04-22 13:53 46.46637 -31.42521 33684 ft 553 kts 243°
2026-04-22 13:54 46.42892 -31.52252 33696 ft 551 kts 243°
2026-04-22 13:54 46.39148 -31.61944 33701 ft 551 kts 243°
2026-04-22 13:55 46.35397 -31.71619 33699 ft 551 kts 243°
2026-04-22 13:55 46.31642 -31.81273 33705 ft 549 kts 243°
2026-04-22 13:56 46.27892 -31.90880 33710 ft 548 kts 243°
2026-04-22 13:56 46.24206 -32.00286 33716 ft 547 kts 243°
2026-04-22 13:57 46.20455 -32.09828 33743 ft 546 kts 243°
2026-04-22 13:57 46.16689 -32.19375 33737 ft 547 kts 242°
2026-04-22 13:58 46.12917 -32.28905 33713 ft 547 kts 242°
2026-04-22 13:58 46.09150 -32.38384 33742 ft 544 kts 242°
2026-04-22 13:59 46.05389 -32.47821 33752 ft 543 kts 242°
2026-04-22 13:59 46.01624 -32.57233 33786 ft 542 kts 242°
2026-04-22 14:00 45.97863 -32.66605 33760 ft 541 kts 243°
2026-04-22 14:00 45.94096 -32.75958 33761 ft 540 kts 242°
2026-04-22 14:01 45.90321 -32.85303 33768 ft 541 kts 242°
2026-04-22 14:01 45.86545 -32.94615 33779 ft 539 kts 243°
2026-04-22 14:02 45.82806 -33.03806 33783 ft 537 kts 242°
2026-04-22 14:02 45.79038 -33.13039 33796 ft 536 kts 242°
2026-04-22 14:03 45.75269 -33.22243 33776 ft 536 kts 242°
2026-04-22 14:03 45.71518 -33.31374 33792 ft 535 kts 242°
2026-04-22 14:04 45.67734 -33.40553 33810 ft 536 kts 242°
2026-04-22 14:04 45.63936 -33.49738 33807 ft 537 kts 242°
2026-04-22 14:05 45.60125 -33.58922 33818 ft 537 kts 242°
2026-04-22 14:06 45.54394 -33.72677 33822 ft 537 kts 242°
2026-04-22 14:06 45.50569 -33.81820 33819 ft 537 kts 242°
2026-04-22 14:07 45.46749 -33.90923 34080 ft 538 kts 242°
2026-04-22 14:07 45.44829 -33.95485 34300 ft 537 kts 242°
2026-04-22 14:07 45.42912 -34.00033 34485 ft 536 kts 242°
2026-04-22 14:07 45.41029 -34.04492 34685 ft 534 kts 242°
2026-04-22 14:08 45.39114 -34.09021 34934 ft 532 kts 242°
2026-04-22 14:08 45.37210 -34.13516 35236 ft 528 kts 242°
2026-04-22 14:08 45.35320 -34.17971 35596 ft 524 kts 242°
2026-04-22 14:08 45.33446 -34.22381 35884 ft 521 kts 242°
2026-04-22 14:09 45.31571 -34.26789 35843 ft 520 kts 242°
2026-04-22 14:09 45.27852 -34.35511 35849 ft 512 kts 242°
2026-04-22 14:10 45.24159 -34.44147 35860 ft 511 kts 242°
2026-04-22 14:10 45.20461 -34.52770 35876 ft 512 kts 242°
2026-04-22 14:11 45.16777 -34.61332 35880 ft 513 kts 242°
2026-04-22 14:11 45.13026 -34.70023 35862 ft 514 kts 242°
2026-04-22 14:12 45.09309 -34.78607 35900 ft 515 kts 242°
2026-04-22 14:12 45.05531 -34.87306 35877 ft 516 kts 242°
2026-04-22 14:13 45.01792 -34.95894 35900 ft 516 kts 242°
2026-04-22 14:13 44.97768 -35.04277 35900 ft 518 kts 235°
2026-04-22 14:14 44.93345 -35.12232 35912 ft 519 kts 234°
2026-04-22 14:14 44.88860 -35.20220 35919 ft 519 kts 234°
2026-04-22 14:15 44.84397 -35.28221 35906 ft 519 kts 235°
2026-04-22 14:15 44.79949 -35.36222 35918 ft 518 kts 235°
2026-04-22 14:16 44.76253 -35.42863 35918 ft 518 kts 235°
2026-04-22 14:16 44.71801 -35.50840 35917 ft 518 kts 235°
2026-04-22 14:17 44.67343 -35.58797 35909 ft 518 kts 235°
2026-04-22 14:17 44.62884 -35.66735 35926 ft 518 kts 235°
2026-04-22 14:18 44.58419 -35.74662 35935 ft 518 kts 235°
2026-04-22 14:18 44.53946 -35.82580 35941 ft 517 kts 236°
2026-04-22 14:19 44.49466 -35.90490 35937 ft 517 kts 236°
2026-04-22 14:19 44.44985 -35.98380 35937 ft 517 kts 235°
2026-04-22 14:20 44.38339 -36.10040 35943 ft 517 kts 236°
2026-04-22 14:20 44.33853 -36.17886 35947 ft 517 kts 236°
2026-04-22 14:21 44.27109 -36.29640 35966 ft 517 kts 236°
2026-04-22 14:22 44.20351 -36.41370 35951 ft 517 kts 236°
2026-04-22 14:23 44.13577 -36.53079 35933 ft 517 kts 236°
2026-04-22 14:23 44.09057 -36.60864 35954 ft 517 kts 236°
2026-04-22 14:24 44.04534 -36.68637 35967 ft 517 kts 236°
2026-04-22 14:24 43.99996 -36.76413 35965 ft 518 kts 236°
2026-04-22 14:25 43.95462 -36.84162 35968 ft 517 kts 237°
2026-04-22 14:25 43.90946 -36.91858 35974 ft 518 kts 237°
2026-04-22 14:26 43.86394 -36.99596 35970 ft 518 kts 236°
2026-04-22 14:26 43.81896 -37.07220 35992 ft 517 kts 237°
2026-04-22 14:27 43.77338 -37.14927 35991 ft 517 kts 237°
2026-04-22 14:27 43.72775 -37.22623 35986 ft 517 kts 237°
2026-04-22 14:28 43.68211 -37.30297 35969 ft 516 kts 238°
2026-04-22 14:28 43.63651 -37.37946 36013 ft 515 kts 238°
2026-04-22 14:29 43.59086 -37.45586 36005 ft 516 kts 237°
2026-04-22 14:29 43.54551 -37.53153 35972 ft 515 kts 238°
2026-04-22 14:30 43.49988 -37.60744 35990 ft 514 kts 238°
2026-04-22 14:30 43.45428 -37.68315 35996 ft 513 kts 238°
2026-04-22 14:31 43.40866 -37.75867 35997 ft 512 kts 238°
2026-04-22 14:31 43.36311 -37.83390 36007 ft 512 kts 238°
2026-04-22 14:32 43.31755 -37.90894 36009 ft 511 kts 238°
2026-04-22 14:32 43.27201 -37.98376 35967 ft 510 kts 238°
2026-04-22 14:33 43.22709 -38.05735 36003 ft 508 kts 238°
2026-04-22 14:33 43.18173 -38.13151 36014 ft 507 kts 238°
2026-04-22 14:34 43.13638 -38.20545 35965 ft 507 kts 238°
2026-04-22 14:34 43.09137 -38.27865 36016 ft 505 kts 238°
2026-04-22 14:35 43.04616 -38.35200 36022 ft 504 kts 238°
2026-04-22 14:35 43.00095 -38.42517 36052 ft 504 kts 238°
2026-04-22 14:36 42.95570 -38.49822 36017 ft 503 kts 238°
2026-04-22 14:36 42.91045 -38.57107 36017 ft 503 kts 238°
2026-04-22 14:37 42.86513 -38.64387 36025 ft 503 kts 238°
2026-04-22 14:37 42.81979 -38.71651 36027 ft 504 kts 238°
2026-04-22 14:38 42.77432 -38.78919 36028 ft 504 kts 238°
2026-04-22 14:38 42.72879 -38.86177 36024 ft 504 kts 238°
2026-04-22 14:39 42.68324 -38.93419 36018 ft 504 kts 239°
2026-04-22 14:39 42.63838 -39.00536 36026 ft 504 kts 239°
2026-04-22 14:40 42.56990 -39.11369 35988 ft 504 kts 238°
2026-04-22 14:40 42.52420 -39.18573 36027 ft 503 kts 238°
2026-04-22 14:41 42.47849 -39.25761 36032 ft 503 kts 238°
2026-04-22 14:41 42.43277 -39.32936 36033 ft 503 kts 238°
2026-04-22 14:42 42.38705 -39.40092 36033 ft 502 kts 238°
2026-04-22 14:42 42.34131 -39.47234 36031 ft 502 kts 238°
2026-04-22 14:43 42.29557 -39.54360 36035 ft 502 kts 238°
2026-04-22 14:43 42.24989 -39.61457 36027 ft 500 kts 238°
2026-04-22 14:44 42.20421 -39.68538 36033 ft 500 kts 238°
2026-04-22 14:44 42.15854 -39.75603 36039 ft 499 kts 238°
2026-04-22 14:45 42.11287 -39.82649 36035 ft 498 kts 237°
2026-04-22 14:45 42.06758 -39.89622 36045 ft 498 kts 237°
2026-04-22 14:46 42.02188 -39.96644 36046 ft 498 kts 237°
2026-04-22 14:46 41.97549 -40.03457 36044 ft 501 kts 233°
2026-04-22 14:47 41.92637 -40.10118 36049 ft 502 kts 233°
2026-04-22 14:47 41.87693 -40.16754 36050 ft 502 kts 233°
2026-04-22 14:48 41.82766 -40.23394 36060 ft 501 kts 233°
2026-04-22 14:48 41.77852 -40.30031 36059 ft 502 kts 233°
2026-04-22 14:49 41.72933 -40.36668 36056 ft 502 kts 233°
2026-04-22 14:49 41.68013 -40.43290 36053 ft 501 kts 232°
2026-04-22 14:50 41.63088 -40.49900 36057 ft 501 kts 232°
2026-04-22 14:50 41.58195 -40.56452 36056 ft 501 kts 232°
2026-04-22 14:51 41.53276 -40.63023 36051 ft 500 kts 232°
2026-04-22 14:51 41.48358 -40.69578 36054 ft 499 kts 232°
2026-04-22 14:52 41.43444 -40.76114 36065 ft 499 kts 232°
2026-04-22 14:52 41.38527 -40.82639 36062 ft 499 kts 232°
2026-04-22 14:53 41.33608 -40.89153 36063 ft 499 kts 232°
2026-04-22 14:53 41.28677 -40.95666 36073 ft 499 kts 232°
2026-04-22 14:54 41.23788 -41.02110 36055 ft 498 kts 232°
2026-04-22 14:54 41.18863 -41.08586 36063 ft 498 kts 232°
2026-04-22 14:55 41.13935 -41.15052 36074 ft 498 kts 232°
2026-04-22 14:55 41.09043 -41.21456 36063 ft 497 kts 231°
2026-04-22 14:56 41.04124 -41.27882 36063 ft 496 kts 231°
2026-04-22 14:56 40.99213 -41.34284 36026 ft 496 kts 231°
2026-04-22 14:57 40.94302 -41.40669 36059 ft 494 kts 231°
2026-04-22 14:57 40.89401 -41.47029 36063 ft 493 kts 231°
2026-04-22 14:58 40.84508 -41.53364 36037 ft 492 kts 231°
2026-04-22 14:58 40.79619 -41.59682 36057 ft 491 kts 231°
2026-04-22 14:59 40.74736 -41.65976 36065 ft 490 kts 231°
2026-04-22 14:59 40.69853 -41.72260 36040 ft 490 kts 230°
2026-04-22 15:00 40.65006 -41.78482 36059 ft 489 kts 230°
2026-04-22 15:00 40.60133 -41.84723 36066 ft 489 kts 230°
2026-04-22 15:01 40.55255 -41.90959 36045 ft 489 kts 230°
2026-04-22 15:01 40.50376 -41.97181 36061 ft 488 kts 230°
2026-04-22 15:02 40.45558 -42.03313 36070 ft 489 kts 230°
2026-04-22 15:02 40.40665 -42.09529 36046 ft 489 kts 230°
2026-04-22 15:03 40.35774 -42.15726 36054 ft 489 kts 230°
2026-04-22 15:03 40.30884 -42.21909 36058 ft 488 kts 229°
2026-04-22 15:04 40.25992 -42.28083 36043 ft 488 kts 229°
2026-04-22 15:04 40.21100 -42.34242 36049 ft 488 kts 229°
2026-04-22 15:05 40.16204 -42.40395 36052 ft 488 kts 229°
2026-04-22 15:05 40.11340 -42.46495 36051 ft 488 kts 229°
2026-04-22 15:06 40.06444 -42.52621 36050 ft 488 kts 229°
2026-04-22 15:06 40.01537 -42.58749 36045 ft 488 kts 229°
2026-04-22 15:07 39.96628 -42.64867 36048 ft 488 kts 229°
2026-04-22 15:07 39.91714 -42.70977 36042 ft 488 kts 229°
2026-04-22 15:08 39.86792 -42.77084 36048 ft 488 kts 229°
2026-04-22 15:08 39.81869 -42.83180 36031 ft 488 kts 228°
2026-04-22 15:09 39.77776 -42.88239 36045 ft 488 kts 228°
2026-04-22 15:09 39.72851 -42.94314 36042 ft 488 kts 228°
2026-04-22 15:10 39.67979 -43.00313 36030 ft 488 kts 228°
2026-04-22 15:10 39.63055 -43.06363 36033 ft 487 kts 228°
2026-04-22 15:11 39.58126 -43.12406 36018 ft 488 kts 227°
2026-04-22 15:11 39.53195 -43.18438 36029 ft 487 kts 227°
2026-04-22 15:12 39.48274 -43.24447 36030 ft 486 kts 227°
2026-04-22 15:12 39.43378 -43.30414 36019 ft 486 kts 227°
2026-04-22 15:13 39.38464 -43.36389 36029 ft 485 kts 227°
2026-04-22 15:13 39.33541 -43.42363 36030 ft 485 kts 227°
2026-04-22 15:14 39.28624 -43.48319 36028 ft 485 kts 227°
2026-04-22 15:14 39.23707 -43.54261 36032 ft 485 kts 227°
2026-04-22 15:15 39.18785 -43.60199 36033 ft 485 kts 227°
2026-04-22 15:15 39.13851 -43.66139 36021 ft 484 kts 226°
2026-04-22 15:16 39.08936 -43.72044 36028 ft 483 kts 226°
2026-04-22 15:16 39.04021 -43.77937 36029 ft 483 kts 226°
2026-04-22 15:17 38.99150 -43.83766 36038 ft 481 kts 226°
2026-04-22 15:17 38.94219 -43.89655 36039 ft 480 kts 226°
2026-04-22 15:18 38.89359 -43.95447 36030 ft 479 kts 226°
2026-04-22 15:18 38.84489 -44.01241 36032 ft 478 kts 226°
2026-04-22 15:19 38.79618 -44.07024 36029 ft 477 kts 226°
2026-04-22 15:19 38.74772 -44.12767 36029 ft 477 kts 226°
2026-04-22 15:20 38.69903 -44.18526 36031 ft 477 kts 226°
2026-04-22 15:20 38.65026 -44.24282 36029 ft 477 kts 226°
2026-04-22 15:21 38.60151 -44.30026 36030 ft 477 kts 226°
2026-04-22 15:21 38.55265 -44.35770 36030 ft 477 kts 226°
2026-04-22 15:22 38.50380 -44.41503 36031 ft 477 kts 226°
2026-04-22 15:22 38.45499 -44.47220 36031 ft 476 kts 225°
2026-04-22 15:23 38.40619 -44.52925 36029 ft 475 kts 225°
2026-04-22 15:23 38.35778 -44.58573 36022 ft 474 kts 225°
2026-04-22 15:24 38.30884 -44.64273 36020 ft 473 kts 225°
2026-04-22 15:24 38.26023 -44.69923 36029 ft 473 kts 225°
2026-04-22 15:25 38.21205 -44.75514 36030 ft 472 kts 225°
2026-04-22 15:25 38.16354 -44.81132 36027 ft 471 kts 225°
2026-04-22 15:26 38.11509 -44.86733 36026 ft 471 kts 225°
2026-04-22 15:26 38.06660 -44.92330 36025 ft 470 kts 225°
2026-04-22 15:27 38.01822 -44.97902 36025 ft 469 kts 225°
2026-04-22 15:27 37.96791 -45.03042 36029 ft 471 kts 219°
2026-04-22 15:28 37.91454 -45.07861 36025 ft 471 kts 218°
2026-04-22 15:28 37.86107 -45.12681 36029 ft 472 kts 219°
2026-04-22 15:29 37.80769 -45.17518 36027 ft 472 kts 218°
2026-04-22 15:30 37.72767 -45.24780 36022 ft 472 kts 218°
2026-04-22 15:30 37.67434 -45.29610 36024 ft 472 kts 218°
2026-04-22 15:31 37.62100 -45.34433 36025 ft 472 kts 218°
2026-04-22 15:31 37.56758 -45.39251 36024 ft 472 kts 218°
2026-04-22 15:32 37.51455 -45.44027 36018 ft 472 kts 218°
2026-04-22 15:32 37.46117 -45.48825 36025 ft 472 kts 218°
2026-04-22 15:33 37.40775 -45.53619 36021 ft 472 kts 218°
2026-04-22 15:33 37.35428 -45.58408 36026 ft 472 kts 218°
2026-04-22 15:34 37.30084 -45.63187 36027 ft 471 kts 218°
2026-04-22 15:34 37.24739 -45.67958 36023 ft 471 kts 218°
2026-04-22 15:35 37.20259 -45.71949 36022 ft 471 kts 218°
2026-04-22 15:35 37.14043 -45.77479 36022 ft 471 kts 218°
2026-04-22 15:36 37.08689 -45.82232 36019 ft 472 kts 218°
2026-04-22 15:36 37.03332 -45.86980 36021 ft 472 kts 218°
2026-04-22 15:37 36.97976 -45.91718 36029 ft 472 kts 218°
2026-04-22 15:37 36.92616 -45.96452 36018 ft 472 kts 218°
2026-04-22 15:38 36.87320 -46.01121 36015 ft 472 kts 217°
2026-04-22 15:38 36.79309 -46.08168 36011 ft 472 kts 217°
2026-04-22 15:39 36.73944 -46.12877 36018 ft 472 kts 217°
2026-04-22 15:39 36.68576 -46.17580 36014 ft 471 kts 217°
2026-04-22 15:40 36.63210 -46.22274 36008 ft 471 kts 217°
2026-04-22 15:40 36.57837 -46.26966 36012 ft 471 kts 217°
2026-04-22 15:41 36.52476 -46.31639 36011 ft 470 kts 217°
2026-04-22 15:41 36.47123 -46.36296 36004 ft 469 kts 217°
2026-04-22 15:42 36.41777 -46.40941 36010 ft 468 kts 217°
2026-04-22 15:42 36.36437 -46.45572 36007 ft 468 kts 217°
2026-04-22 15:43 36.31129 -46.50167 36007 ft 468 kts 218°
2026-04-22 15:43 36.25794 -46.54777 36002 ft 467 kts 218°
2026-04-22 15:44 36.20462 -46.59379 36003 ft 467 kts 217°
2026-04-22 15:44 36.15130 -46.63971 36001 ft 466 kts 218°
2026-04-22 15:45 36.09806 -46.68549 35999 ft 466 kts 218°
2026-04-22 15:45 36.04484 -46.73117 35988 ft 466 kts 218°
2026-04-22 15:46 35.99166 -46.77675 36001 ft 466 kts 218°
2026-04-22 15:46 35.93839 -46.82233 35998 ft 466 kts 218°
2026-04-22 15:47 35.88504 -46.86790 35998 ft 466 kts 218°
2026-04-22 15:47 35.83171 -46.91337 35997 ft 466 kts 218°
2026-04-22 15:48 35.77865 -46.95854 35986 ft 467 kts 217°
2026-04-22 15:48 35.72587 -47.00339 36005 ft 466 kts 218°
2026-04-22 15:49 35.67252 -47.04866 35992 ft 465 kts 218°
2026-04-22 15:49 35.61923 -47.09381 35988 ft 465 kts 218°
2026-04-22 15:50 35.56600 -47.13882 35989 ft 464 kts 218°
2026-04-22 15:50 35.51276 -47.18377 35997 ft 464 kts 217°
2026-04-22 15:51 35.45958 -47.22860 35996 ft 463 kts 217°
2026-04-22 15:51 35.40644 -47.27332 35990 ft 463 kts 217°
2026-04-22 15:52 35.35368 -47.31765 35983 ft 463 kts 217°
2026-04-22 15:52 35.30061 -47.36217 35993 ft 462 kts 217°
2026-04-22 15:53 35.24751 -47.40664 35989 ft 462 kts 217°
2026-04-22 15:53 35.19442 -47.45103 35987 ft 462 kts 217°
2026-04-22 15:54 35.14139 -47.49530 35989 ft 461 kts 217°
2026-04-22 15:54 35.08836 -47.53949 35981 ft 461 kts 217°
2026-04-22 15:55 35.03536 -47.58359 35988 ft 461 kts 217°
2026-04-22 15:55 34.98240 -47.62759 35988 ft 461 kts 217°
2026-04-22 15:56 34.92939 -47.67155 35977 ft 460 kts 217°
2026-04-22 15:56 34.87648 -47.71537 35985 ft 460 kts 217°
2026-04-22 15:57 34.82358 -47.75911 35973 ft 459 kts 217°
2026-04-22 15:57 34.77110 -47.80243 35985 ft 458 kts 217°
2026-04-22 15:58 34.71836 -47.84591 35985 ft 458 kts 217°
2026-04-22 15:58 34.66572 -47.88922 35964 ft 456 kts 217°
2026-04-22 15:59 34.61320 -47.93238 35976 ft 456 kts 217°
2026-04-22 15:59 34.56957 -47.96818 35981 ft 455 kts 217°
2026-04-22 16:00 34.51773 -48.01065 35981 ft 455 kts 217°
2026-04-22 16:00 34.46530 -48.05354 35978 ft 455 kts 217°
2026-04-22 16:01 34.41283 -48.09640 35979 ft 455 kts 217°
2026-04-22 16:01 34.36038 -48.13918 35973 ft 454 kts 217°
2026-04-22 16:02 34.30797 -48.18186 35981 ft 454 kts 217°
2026-04-22 16:02 34.25546 -48.22455 35973 ft 455 kts 217°
2026-04-22 16:03 34.20293 -48.26720 35982 ft 455 kts 217°
2026-04-22 16:03 34.15044 -48.30974 35981 ft 454 kts 217°
2026-04-22 16:04 34.09790 -48.35226 35964 ft 454 kts 217°
2026-04-22 16:04 34.04535 -48.39473 35979 ft 454 kts 217°
2026-04-22 16:05 33.99319 -48.43682 35981 ft 455 kts 217°
2026-04-22 16:05 33.94063 -48.47917 35971 ft 454 kts 217°
2026-04-22 16:06 33.88810 -48.52143 35983 ft 454 kts 217°
2026-04-22 16:06 33.83557 -48.56362 35980 ft 454 kts 217°
2026-04-22 16:07 33.78296 -48.60582 35973 ft 455 kts 217°
2026-04-22 16:07 33.73027 -48.64802 35981 ft 455 kts 217°
2026-04-22 16:08 33.67753 -48.69020 35983 ft 456 kts 216°
2026-04-22 16:08 33.62468 -48.73239 35981 ft 456 kts 216°
2026-04-22 16:09 33.57182 -48.77452 35981 ft 456 kts 216°
2026-04-22 16:09 33.51889 -48.81666 35981 ft 457 kts 216°
2026-04-22 16:10 33.46593 -48.85874 35977 ft 457 kts 216°
2026-04-22 16:10 33.41285 -48.90089 35983 ft 458 kts 216°
2026-04-22 16:11 33.36004 -48.94275 35973 ft 459 kts 217°
2026-04-22 16:11 33.30678 -48.98490 35987 ft 459 kts 217°
2026-04-22 16:12 33.25403 -49.02658 35984 ft 460 kts 217°
2026-04-22 16:12 33.20064 -49.06871 35969 ft 460 kts 217°
2026-04-22 16:13 33.14712 -49.11087 35977 ft 460 kts 217°
2026-04-22 16:13 33.09364 -49.15294 35980 ft 460 kts 217°
2026-04-22 16:14 33.04018 -49.19493 35981 ft 460 kts 217°
2026-04-22 16:14 32.98680 -49.23680 35981 ft 459 kts 217°
2026-04-22 16:15 32.93339 -49.27863 35984 ft 459 kts 217°
2026-04-22 16:15 32.88000 -49.32038 36003 ft 458 kts 217°
2026-04-22 16:16 32.82713 -49.36166 35975 ft 457 kts 217°
2026-04-22 16:16 32.77405 -49.40304 35981 ft 455 kts 217°
2026-04-22 16:17 32.72110 -49.44427 35984 ft 454 kts 217°
2026-04-22 16:17 32.66823 -49.48539 35972 ft 454 kts 217°
2026-04-22 16:18 32.61538 -49.52642 35991 ft 454 kts 217°
2026-04-22 16:18 32.56259 -49.56734 35992 ft 453 kts 217°
2026-04-22 16:19 32.50985 -49.60818 35989 ft 452 kts 217°
2026-04-22 16:19 32.45720 -49.64888 35987 ft 452 kts 217°
2026-04-22 16:20 32.40450 -49.68956 35972 ft 453 kts 217°
2026-04-22 16:20 32.35169 -49.73029 35981 ft 454 kts 217°
2026-04-22 16:21 32.29873 -49.77107 35985 ft 454 kts 217°
2026-04-22 16:21 32.24607 -49.81154 35967 ft 455 kts 217°
2026-04-22 16:22 32.16633 -49.87274 35976 ft 457 kts 217°
2026-04-22 16:23 32.08626 -49.93406 35965 ft 458 kts 217°
2026-04-22 16:23 32.03273 -49.97499 35990 ft 458 kts 217°
2026-04-22 16:24 31.95194 -50.03436 35984 ft 460 kts 214°
2026-04-22 16:25 31.89662 -50.07143 35968 ft 460 kts 214°
2026-04-22 16:25 31.81337 -50.12727 35983 ft 459 kts 214°
2026-04-22 16:26 31.75810 -50.16475 35966 ft 458 kts 214°
2026-04-22 16:26 31.70288 -50.20225 35994 ft 458 kts 214°
2026-04-22 16:27 31.64769 -50.23970 35986 ft 458 kts 214°
2026-04-22 16:27 31.59251 -50.27708 35970 ft 458 kts 214°
2026-04-22 16:28 31.53724 -50.31445 35979 ft 458 kts 214°
2026-04-22 16:28 31.48237 -50.35151 35984 ft 458 kts 214°
2026-04-22 16:29 31.42708 -50.38879 35981 ft 459 kts 214°
2026-04-22 16:29 31.37172 -50.42607 35995 ft 459 kts 214°
2026-04-22 16:30 31.31629 -50.46335 35983 ft 459 kts 214°
2026-04-22 16:30 31.26083 -50.50059 35985 ft 460 kts 214°
2026-04-22 16:31 31.20532 -50.53782 35975 ft 459 kts 214°
2026-04-22 16:31 31.14995 -50.57489 35983 ft 458 kts 214°
2026-04-22 16:32 31.09471 -50.61183 35984 ft 457 kts 214°
2026-04-22 16:32 31.03956 -50.64867 35999 ft 457 kts 214°
2026-04-22 16:33 30.98450 -50.68541 35989 ft 456 kts 214°
2026-04-22 16:33 30.92983 -50.72182 35988 ft 456 kts 214°
2026-04-22 16:34 30.87480 -50.75842 35980 ft 456 kts 214°
2026-04-22 16:34 30.81965 -50.79507 35987 ft 456 kts 214°
2026-04-22 16:35 30.76450 -50.83167 35997 ft 456 kts 214°
2026-04-22 16:35 30.70934 -50.86823 35985 ft 457 kts 214°
2026-04-22 16:36 30.65395 -50.90488 35989 ft 459 kts 214°
2026-04-22 16:36 30.59847 -50.94153 35990 ft 459 kts 214°
2026-04-22 16:37 30.54299 -50.97814 35983 ft 459 kts 214°
2026-04-22 16:37 30.48803 -51.01436 35996 ft 459 kts 214°
2026-04-22 16:38 30.43239 -51.05099 35992 ft 460 kts 214°
2026-04-22 16:38 30.37694 -51.08744 35979 ft 461 kts 214°
2026-04-22 16:39 30.32110 -51.12409 36001 ft 462 kts 214°
2026-04-22 16:39 30.26513 -51.16079 36005 ft 463 kts 214°
2026-04-22 16:40 30.20909 -51.19748 36000 ft 463 kts 214°
2026-04-22 16:41 30.12485 -51.25254 36000 ft 464 kts 214°
2026-04-22 16:41 30.06857 -51.28927 36006 ft 465 kts 214°
2026-04-22 16:42 30.01223 -51.32598 35993 ft 465 kts 214°
2026-04-22 16:42 29.95595 -51.36263 35998 ft 465 kts 214°
2026-04-22 16:43 29.89967 -51.39919 36002 ft 463 kts 214°
2026-04-22 16:43 29.84361 -51.43556 36003 ft 461 kts 214°
2026-04-22 16:44 29.78772 -51.47180 36010 ft 460 kts 214°
2026-04-22 16:44 29.73197 -51.50790 36009 ft 460 kts 214°
2026-04-22 16:45 29.67655 -51.54374 36014 ft 460 kts 214°
2026-04-22 16:45 29.62045 -51.57998 36029 ft 460 kts 214°
2026-04-22 16:46 29.56499 -51.61575 36009 ft 460 kts 214°
2026-04-22 16:46 29.50918 -51.65170 36018 ft 460 kts 214°
2026-04-22 16:47 29.45340 -51.68758 35999 ft 460 kts 214°
2026-04-22 16:47 29.40704 -51.71737 36007 ft 459 kts 214°
2026-04-22 16:48 29.34182 -51.75923 36010 ft 460 kts 214°
2026-04-22 16:48 29.28599 -51.79501 36012 ft 460 kts 214°
2026-04-22 16:49 29.23010 -51.83079 36011 ft 460 kts 213°
2026-04-22 16:49 29.17423 -51.86650 36011 ft 460 kts 213°
2026-04-22 16:50 29.12777 -51.89617 36011 ft 460 kts 213°
2026-04-22 16:50 29.06282 -51.93759 36000 ft 460 kts 213°
2026-04-22 16:51 29.00689 -51.97322 36012 ft 460 kts 213°
2026-04-22 16:51 28.96123 -52.00226 36011 ft 460 kts 213°
2026-04-22 16:52 28.90524 -52.03784 36012 ft 461 kts 213°
2026-04-22 16:52 28.84919 -52.07341 36014 ft 461 kts 213°
2026-04-22 16:53 28.79307 -52.10898 36010 ft 462 kts 213°
2026-04-22 16:53 28.73688 -52.14455 36015 ft 462 kts 213°
2026-04-22 16:54 28.68064 -52.18011 36002 ft 462 kts 213°
2026-04-22 16:54 28.62441 -52.21562 36015 ft 462 kts 213°
2026-04-22 16:55 28.56820 -52.25107 36017 ft 462 kts 213°
2026-04-22 16:55 28.51195 -52.28651 36031 ft 462 kts 213°
2026-04-22 16:56 28.45570 -52.32190 36021 ft 462 kts 213°
2026-04-22 16:56 28.39984 -52.35700 36017 ft 462 kts 213°
2026-04-22 16:57 28.34360 -52.39230 36019 ft 462 kts 213°
2026-04-22 16:57 28.28728 -52.42761 36007 ft 462 kts 213°
2026-04-22 16:58 28.23094 -52.46288 36022 ft 463 kts 213°
2026-04-22 16:58 28.17451 -52.49817 36020 ft 464 kts 213°
2026-04-22 16:59 28.11795 -52.53350 36004 ft 464 kts 213°
2026-04-22 16:59 28.06134 -52.56881 36021 ft 465 kts 213°
2026-04-22 17:00 28.00503 -52.60390 36017 ft 466 kts 213°
2026-04-22 17:00 27.91988 -52.65687 36016 ft 466 kts 213°
2026-04-22 17:01 27.86296 -52.69222 36013 ft 467 kts 213°
2026-04-22 17:01 27.80603 -52.72755 36021 ft 467 kts 213°
2026-04-22 17:02 27.74896 -52.76291 36020 ft 468 kts 213°
2026-04-22 17:02 27.69187 -52.79825 36019 ft 468 kts 213°
2026-04-22 17:03 27.63475 -52.83355 36018 ft 468 kts 213°
2026-04-22 17:03 27.57766 -52.86880 36019 ft 468 kts 213°
2026-04-22 17:04 27.52097 -52.90376 36007 ft 467 kts 213°
2026-04-22 17:04 27.46396 -52.93888 36017 ft 467 kts 213°
2026-04-22 17:05 27.40696 -52.97395 36019 ft 467 kts 213°
2026-04-22 17:05 27.35066 -53.00855 36026 ft 467 kts 213°
2026-04-22 17:06 27.29366 -53.04354 36008 ft 467 kts 213°
2026-04-22 17:06 27.23664 -53.07849 36021 ft 467 kts 213°
2026-04-22 17:07 27.17958 -53.11344 36019 ft 467 kts 213°
2026-04-22 17:07 27.12250 -53.14835 36015 ft 467 kts 213°
2026-04-22 17:08 27.06537 -53.18325 36011 ft 468 kts 214°
2026-04-22 17:08 27.00820 -53.21814 36024 ft 468 kts 214°
2026-04-22 17:09 26.95103 -53.25298 36036 ft 468 kts 214°
2026-04-22 17:09 26.89368 -53.28790 36004 ft 469 kts 214°
2026-04-22 17:10 26.83634 -53.32276 36016 ft 469 kts 214°
2026-04-22 17:10 26.77899 -53.35760 36015 ft 469 kts 214°
2026-04-22 17:11 26.72199 -53.39218 36015 ft 469 kts 214°
2026-04-22 17:11 26.66459 -53.42695 36010 ft 469 kts 214°
2026-04-22 17:12 26.60729 -53.46164 36017 ft 469 kts 214°
2026-04-22 17:12 26.54996 -53.49630 36020 ft 468 kts 214°
2026-04-22 17:13 26.49259 -53.53094 35994 ft 468 kts 214°
2026-04-22 17:13 26.43530 -53.56549 36016 ft 468 kts 215°
2026-04-22 17:14 26.37802 -53.60001 36022 ft 468 kts 215°
2026-04-22 17:14 26.32074 -53.63448 36021 ft 467 kts 214°
2026-04-22 17:15 26.26353 -53.66886 36013 ft 467 kts 215°
2026-04-22 17:15 26.20640 -53.70316 36022 ft 466 kts 215°
2026-04-22 17:16 26.14929 -53.73743 36027 ft 466 kts 215°
2026-04-22 17:16 26.09221 -53.77163 36025 ft 466 kts 215°
2026-04-22 17:17 26.03513 -53.80579 36017 ft 465 kts 216°
2026-04-22 17:17 25.97861 -53.83957 36022 ft 464 kts 216°
2026-04-22 17:18 25.92182 -53.87347 36022 ft 463 kts 216°
2026-04-22 17:18 25.86507 -53.90733 36022 ft 463 kts 216°
2026-04-22 17:19 25.75209 -53.97460 36017 ft 460 kts 216°
2026-04-22 17:20 25.64032 -54.04103 36025 ft 459 kts 216°
2026-04-22 17:21 25.55580 -54.09117 36024 ft 459 kts 216°
2026-04-22 17:22 25.47158 -54.14104 36025 ft 460 kts 216°
2026-04-22 17:23 25.38699 -54.19103 36027 ft 459 kts 216°
2026-04-22 17:23 25.30253 -54.24089 36018 ft 458 kts 216°
2026-04-22 17:24 25.24629 -54.27404 36015 ft 458 kts 216°
2026-04-22 17:24 25.18999 -54.30719 36014 ft 457 kts 217°
2026-04-22 17:25 25.13397 -54.34014 36021 ft 456 kts 217°
2026-04-22 17:25 25.07795 -54.37306 36023 ft 455 kts 217°
2026-04-22 17:26 25.02243 -54.40565 36020 ft 455 kts 217°
2026-04-22 17:26 24.96667 -54.43835 36020 ft 454 kts 217°
2026-04-22 17:27 24.91096 -54.47098 36023 ft 453 kts 217°
2026-04-22 17:27 24.85524 -54.50359 36037 ft 453 kts 217°
2026-04-22 17:28 24.79956 -54.53615 36027 ft 453 kts 217°
2026-04-22 17:28 24.74389 -54.56866 36017 ft 453 kts 217°
2026-04-22 17:29 24.68822 -54.60113 36028 ft 452 kts 217°
2026-04-22 17:29 24.63258 -54.63356 36027 ft 453 kts 217°
2026-04-22 17:30 24.57698 -54.66593 36028 ft 452 kts 217°
2026-04-22 17:30 24.52135 -54.69828 36021 ft 452 kts 217°
2026-04-22 17:31 24.46579 -54.73057 36025 ft 452 kts 217°
2026-04-22 17:31 24.41057 -54.76263 36038 ft 452 kts 217°
2026-04-22 17:32 24.35496 -54.79488 36027 ft 452 kts 217°
2026-04-22 17:32 24.29941 -54.82705 36020 ft 451 kts 217°
2026-04-22 17:33 24.24392 -54.85917 36021 ft 451 kts 217°
2026-04-22 17:33 24.18845 -54.89124 36024 ft 450 kts 217°
2026-04-22 17:34 24.13299 -54.92328 36024 ft 450 kts 217°
2026-04-22 17:34 24.07756 -54.95527 36010 ft 450 kts 217°
2026-04-22 17:35 24.02217 -54.98721 36024 ft 450 kts 217°
2026-04-22 17:35 23.96735 -55.01802 36035 ft 452 kts 216°
2026-04-22 17:36 23.91044 -55.04760 36028 ft 453 kts 215°
2026-04-22 17:36 23.85334 -55.07693 36025 ft 453 kts 214°
2026-04-22 17:37 23.79639 -55.10644 36025 ft 453 kts 215°
2026-04-22 17:37 23.73948 -55.13609 36026 ft 453 kts 215°
2026-04-22 17:38 23.68262 -55.16574 36026 ft 453 kts 215°
2026-04-22 17:38 23.62574 -55.19538 36008 ft 453 kts 214°
2026-04-22 17:39 23.56886 -55.22498 36022 ft 453 kts 214°
2026-04-22 17:40 23.48359 -55.26929 36031 ft 453 kts 214°
2026-04-22 17:40 23.42706 -55.29863 36029 ft 453 kts 214°
2026-04-22 17:41 23.37019 -55.32812 36029 ft 453 kts 214°
2026-04-22 17:41 23.31332 -55.35759 36027 ft 453 kts 214°
2026-04-22 17:42 23.25643 -55.38703 36028 ft 453 kts 214°
2026-04-22 17:42 23.20917 -55.41147 36026 ft 453 kts 214°
2026-04-22 17:43 23.14270 -55.44581 36021 ft 452 kts 214°
2026-04-22 17:43 23.08584 -55.47515 36022 ft 452 kts 214°
2026-04-22 17:44 23.02902 -55.50445 36029 ft 452 kts 214°
2026-04-22 17:44 22.97256 -55.53354 36038 ft 452 kts 214°
2026-04-22 17:45 22.91573 -55.56278 36014 ft 452 kts 214°
2026-04-22 17:45 22.85890 -55.59200 36021 ft 452 kts 214°
2026-04-22 17:46 22.81162 -55.61629 36025 ft 452 kts 214°
2026-04-22 17:46 22.75474 -55.64549 36034 ft 452 kts 214°
2026-04-22 17:47 22.69782 -55.67468 35999 ft 453 kts 214°
2026-04-22 17:47 22.64082 -55.70389 36030 ft 453 kts 214°
2026-04-22 17:48 22.58384 -55.73305 36013 ft 453 kts 214°
2026-04-22 17:48 22.52679 -55.76223 36015 ft 453 kts 214°
2026-04-22 17:49 22.46976 -55.79137 36016 ft 454 kts 214°
2026-04-22 17:49 22.41253 -55.82059 36212 ft 455 kts 214°
2026-04-22 17:49 22.38395 -55.83515 36481 ft 453 kts 214°
2026-04-22 17:50 22.35553 -55.84962 36732 ft 451 kts 214°
2026-04-22 17:50 22.32754 -55.86387 36933 ft 450 kts 214°
2026-04-22 17:50 22.29925 -55.87828 37115 ft 450 kts 214°
2026-04-22 17:50 22.27098 -55.89268 37348 ft 448 kts 214°
2026-04-22 17:51 22.24292 -55.90695 37696 ft 444 kts 214°
2026-04-22 17:51 22.21511 -55.92107 38028 ft 440 kts 214°
2026-04-22 17:51 22.18746 -55.93512 38009 ft 438 kts 214°
2026-04-22 17:52 22.13284 -55.96285 38010 ft 430 kts 214°
2026-04-22 17:52 22.07875 -55.99036 38028 ft 430 kts 214°
2026-04-22 17:53 22.02525 -56.01755 38024 ft 431 kts 214°
2026-04-22 17:53 21.97097 -56.04510 37993 ft 432 kts 214°
2026-04-22 17:54 21.91652 -56.07269 38018 ft 433 kts 214°
2026-04-22 17:54 21.86197 -56.10029 38026 ft 434 kts 214°
2026-04-22 17:55 21.80702 -56.12807 38022 ft 436 kts 214°
2026-04-22 17:55 21.75211 -56.15580 38023 ft 436 kts 214°
2026-04-22 17:56 21.69749 -56.18338 38003 ft 437 kts 213°
2026-04-22 17:56 21.64251 -56.21109 38018 ft 437 kts 213°
2026-04-22 17:57 21.58745 -56.23884 38023 ft 437 kts 213°
2026-04-22 17:57 21.53227 -56.26662 38019 ft 438 kts 213°
2026-04-22 17:58 21.47715 -56.29435 38000 ft 438 kts 213°
2026-04-22 17:58 21.42200 -56.32207 38013 ft 438 kts 213°
2026-04-22 17:59 21.36674 -56.34982 38013 ft 438 kts 213°
2026-04-22 17:59 21.31156 -56.37750 38021 ft 438 kts 213°
2026-04-22 18:00 21.26567 -56.40051 38012 ft 438 kts 213°
2026-04-22 18:00 21.20112 -56.43285 38021 ft 438 kts 213°
2026-04-22 18:01 21.14584 -56.46052 38024 ft 439 kts 213°
2026-04-22 18:01 21.09048 -56.48821 38019 ft 440 kts 213°
2026-04-22 18:02 21.03498 -56.51595 38017 ft 440 kts 213°
2026-04-22 18:02 20.97944 -56.54368 38017 ft 441 kts 213°
2026-04-22 18:03 20.92376 -56.57145 38017 ft 441 kts 213°
2026-04-22 18:03 20.86807 -56.59921 38017 ft 442 kts 213°
2026-04-22 18:04 20.81239 -56.62693 38013 ft 441 kts 213°
2026-04-22 18:04 20.75676 -56.65461 38014 ft 441 kts 213°
2026-04-22 18:05 20.70119 -56.68226 38010 ft 441 kts 213°
2026-04-22 18:05 20.64561 -56.70987 38015 ft 441 kts 213°
2026-04-22 18:06 20.59026 -56.73735 38014 ft 442 kts 213°
2026-04-22 18:06 20.53443 -56.76505 38014 ft 442 kts 213°
2026-04-22 18:07 20.47853 -56.79276 37988 ft 443 kts 212°
2026-04-22 18:07 20.42261 -56.82045 38009 ft 444 kts 212°
2026-04-22 18:08 20.36657 -56.84818 38019 ft 444 kts 212°
2026-04-22 18:08 20.31038 -56.87596 38008 ft 445 kts 212°
2026-04-22 18:09 20.25413 -56.90375 38006 ft 446 kts 212°
2026-04-22 18:09 20.19784 -56.93154 37995 ft 446 kts 212°
2026-04-22 18:10 20.14150 -56.95932 38006 ft 446 kts 212°
2026-04-22 18:10 20.08516 -56.98709 38002 ft 447 kts 212°
2026-04-22 18:11 20.02961 -57.01445 38005 ft 447 kts 212°
2026-04-22 18:11 19.97322 -57.04220 37975 ft 447 kts 212°
2026-04-22 18:12 19.91673 -57.06997 37999 ft 447 kts 212°
2026-04-22 18:12 19.86937 -57.09324 38004 ft 448 kts 212°
2026-04-22 18:13 19.80359 -57.12554 38011 ft 448 kts 212°
2026-04-22 18:13 19.74691 -57.15334 38002 ft 449 kts 212°
2026-04-22 18:14 19.69028 -57.18110 38003 ft 449 kts 212°
2026-04-22 18:14 19.63354 -57.20889 38000 ft 449 kts 212°
2026-04-22 18:15 19.57672 -57.23669 37994 ft 450 kts 212°
2026-04-22 18:15 19.51978 -57.26454 38002 ft 450 kts 212°
2026-04-22 18:16 19.46282 -57.29237 37981 ft 451 kts 212°
2026-04-22 18:16 19.40579 -57.32021 37988 ft 451 kts 212°
2026-04-22 18:17 19.34908 -57.34788 37990 ft 452 kts 212°
2026-04-22 18:17 19.29185 -57.37578 37992 ft 453 kts 212°
2026-04-22 18:18 19.23459 -57.40367 37998 ft 453 kts 212°
2026-04-22 18:18 19.17728 -57.43156 37977 ft 453 kts 212°
2026-04-22 18:19 19.11994 -57.45945 37987 ft 454 kts 212°
2026-04-22 18:19 19.06251 -57.48736 37991 ft 454 kts 212°
2026-04-22 18:20 19.00500 -57.51529 37986 ft 455 kts 212°
2026-04-22 18:20 18.94755 -57.54316 37989 ft 455 kts 212°
2026-04-22 18:21 18.89034 -57.57091 37991 ft 456 kts 212°
2026-04-22 18:21 18.83262 -57.59887 37997 ft 457 kts 211°
2026-04-22 18:22 18.77477 -57.62688 37988 ft 457 kts 211°
2026-04-22 18:22 18.71700 -57.65483 37999 ft 458 kts 211°
2026-04-22 18:23 18.65888 -57.68293 37956 ft 458 kts 211°
2026-04-22 18:23 18.60083 -57.71096 37982 ft 459 kts 211°
2026-04-22 18:24 18.51371 -57.75301 37978 ft 460 kts 211°
2026-04-22 18:25 18.42677 -57.79492 37983 ft 460 kts 211°
2026-04-22 18:25 18.36848 -57.82299 37985 ft 460 kts 211°
2026-04-22 18:26 18.28111 -57.86503 37979 ft 460 kts 211°
2026-04-22 18:26 18.22282 -57.89305 37982 ft 460 kts 211°
2026-04-22 18:27 18.16458 -57.92103 37981 ft 460 kts 211°
2026-04-22 18:27 18.10636 -57.94899 37974 ft 460 kts 211°
2026-04-22 18:28 18.04814 -57.97702 37974 ft 459 kts 213°
2026-04-22 18:28 17.99570 -58.01134 37988 ft 450 kts 222°
2026-04-22 18:29 17.94855 -58.05388 37980 ft 444 kts 230°
2026-04-22 18:29 17.90532 -58.10025 37973 ft 444 kts 231°
2026-04-22 18:30 17.84066 -58.17014 37973 ft 446 kts 230°
2026-04-22 18:31 17.79722 -58.21667 37985 ft 447 kts 230°
2026-04-22 18:31 17.75361 -58.26321 37978 ft 448 kts 230°
2026-04-22 18:32 17.71697 -58.30224 37980 ft 448 kts 230°
2026-04-22 18:32 17.66613 -58.35639 37977 ft 448 kts 230°
2026-04-22 18:33 17.62237 -58.40296 37958 ft 449 kts 230°
2026-04-22 18:33 17.57846 -58.44967 37974 ft 449 kts 230°
2026-04-22 18:34 17.53456 -58.49632 37982 ft 450 kts 230°
2026-04-22 18:34 17.49055 -58.54306 37978 ft 451 kts 230°
2026-04-22 18:35 17.44677 -58.58952 37974 ft 451 kts 230°
2026-04-22 18:35 17.40272 -58.63624 37973 ft 451 kts 230°
2026-04-22 18:36 17.36576 -58.67542 37953 ft 451 kts 229°
2026-04-22 18:36 17.32195 -58.72181 37977 ft 451 kts 229°
2026-04-22 18:37 17.27775 -58.76857 37980 ft 452 kts 229°
2026-04-22 18:37 17.23349 -58.81538 37972 ft 453 kts 229°
2026-04-22 18:38 17.18916 -58.86223 37973 ft 453 kts 229°
2026-04-22 18:38 17.14478 -58.90910 37970 ft 453 kts 229°
2026-04-22 18:39 17.07817 -58.97937 37984 ft 453 kts 229°
2026-04-22 18:39 17.03427 -59.02564 37968 ft 453 kts 229°
2026-04-22 18:40 16.99020 -59.07206 37972 ft 454 kts 229°
2026-04-22 18:40 16.94576 -59.11884 37970 ft 453 kts 229°
2026-04-22 18:41 16.90126 -59.16564 37973 ft 453 kts 229°
2026-04-22 18:41 16.85682 -59.21237 37976 ft 453 kts 228°
2026-04-22 18:42 16.81239 -59.25903 37968 ft 452 kts 228°
2026-04-22 18:42 16.76804 -59.30558 37970 ft 452 kts 228°
2026-04-22 18:43 16.72366 -59.35212 37976 ft 452 kts 228°
2026-04-22 18:43 16.67963 -59.39828 37980 ft 452 kts 228°
2026-04-22 18:44 16.63529 -59.44472 37980 ft 452 kts 228°
2026-04-22 18:44 16.59094 -59.49115 37974 ft 452 kts 228°
2026-04-22 18:45 16.54654 -59.53759 37970 ft 452 kts 228°
2026-04-22 18:45 16.50216 -59.58398 37971 ft 452 kts 228°
2026-04-22 18:46 16.45771 -59.63041 37970 ft 453 kts 228°
2026-04-22 18:46 16.41321 -59.67686 37968 ft 453 kts 228°
2026-04-22 18:47 16.36871 -59.72328 37969 ft 453 kts 228°
2026-04-22 18:47 16.32411 -59.76977 37963 ft 454 kts 227°
2026-04-22 18:48 16.27944 -59.81630 37966 ft 455 kts 227°
2026-04-22 18:48 16.23496 -59.86260 37968 ft 455 kts 227°
2026-04-22 18:49 16.19011 -59.90927 37972 ft 456 kts 227°
2026-04-22 18:49 16.14517 -59.95598 37968 ft 457 kts 227°
2026-04-22 18:50 16.10140 -60.00142 37550 ft 443 kts 227°
2026-04-22 18:50 16.07977 -60.02387 37158 ft 435 kts 227°
2026-04-22 18:50 16.05845 -60.04601 36664 ft 430 kts 227°
2026-04-22 18:51 16.03765 -60.06759 36174 ft 426 kts 227°
2026-04-22 18:51 16.01671 -60.08933 35613 ft 424 kts 227°
2026-04-22 18:51 15.99594 -60.11089 35101 ft 422 kts 227°
2026-04-22 18:51 15.97524 -60.13235 34632 ft 419 kts 227°
2026-04-22 18:52 15.95472 -60.15364 34177 ft 415 kts 227°
2026-04-22 18:52 15.93435 -60.17475 33670 ft 412 kts 227°
2026-04-22 18:52 15.91410 -60.19571 33155 ft 410 kts 227°
2026-04-22 18:52 15.89397 -60.21655 32667 ft 407 kts 227°
2026-04-22 18:53 15.87398 -60.23720 32187 ft 404 kts 227°
2026-04-22 18:53 15.85414 -60.25770 31714 ft 401 kts 227°
2026-04-22 18:53 15.83441 -60.27809 31245 ft 399 kts 227°
2026-04-22 18:53 15.81478 -60.29837 30780 ft 397 kts 227°
2026-04-22 18:54 15.79521 -60.31859 30323 ft 395 kts 227°
2026-04-22 18:54 15.77572 -60.33871 29808 ft 394 kts 227°
2026-04-22 18:54 15.75632 -60.35875 29289 ft 392 kts 227°
2026-04-22 18:54 15.73704 -60.37865 28799 ft 390 kts 228°
2026-04-22 18:55 15.71786 -60.39845 28328 ft 388 kts 228°
2026-04-22 18:55 15.69878 -60.41814 27859 ft 385 kts 228°
2026-04-22 18:55 15.67983 -60.43769 27401 ft 383 kts 228°
2026-04-22 18:55 15.66098 -60.45713 26949 ft 381 kts 228°
2026-04-22 18:56 15.64219 -60.47650 26496 ft 379 kts 228°
2026-04-22 18:56 15.62349 -60.49577 26058 ft 378 kts 228°
2026-04-22 18:56 15.60488 -60.51494 25601 ft 376 kts 228°
2026-04-22 18:56 15.58634 -60.53405 25170 ft 376 kts 228°
2026-04-22 18:57 15.56808 -60.55286 24719 ft 375 kts 228°
2026-04-22 18:57 15.54957 -60.57192 24276 ft 374 kts 228°
2026-04-22 18:57 15.53111 -60.59093 23836 ft 374 kts 228°
2026-04-22 18:57 15.51261 -60.60996 23367 ft 374 kts 228°
2026-04-22 18:58 15.49419 -60.62893 22892 ft 373 kts 228°
2026-04-22 18:58 15.47580 -60.64783 22403 ft 371 kts 227°
2026-04-22 18:58 15.45753 -60.66662 21976 ft 369 kts 227°
2026-04-22 18:58 15.43934 -60.68532 21555 ft 368 kts 227°
2026-04-22 18:59 15.42123 -60.70392 21112 ft 366 kts 227°
2026-04-22 18:59 15.40318 -60.72247 20686 ft 365 kts 227°
2026-04-22 18:59 15.38520 -60.74094 20258 ft 364 kts 227°
2026-04-22 18:59 15.36722 -60.75940 19835 ft 363 kts 227°
2026-04-22 19:00 15.34928 -60.77782 19389 ft 362 kts 227°
2026-04-22 19:00 15.33138 -60.79620 18969 ft 362 kts 227°
2026-04-22 19:00 15.31347 -60.81459 18538 ft 363 kts 227°
2026-04-22 19:00 15.29555 -60.83297 18075 ft 363 kts 226°
2026-04-22 19:01 15.27763 -60.85135 17617 ft 362 kts 226°
2026-04-22 19:01 15.25973 -60.86970 17160 ft 361 kts 226°
2026-04-22 19:01 15.24193 -60.88794 16730 ft 360 kts 226°
2026-04-22 19:01 15.22416 -60.90616 16306 ft 359 kts 226°
2026-04-22 19:02 15.20666 -60.92409 15876 ft 358 kts 226°
2026-04-22 19:02 15.18878 -60.94240 15455 ft 357 kts 226°
2026-04-22 19:02 15.17116 -60.96045 15026 ft 356 kts 226°
2026-04-22 19:02 15.15379 -60.97823 14615 ft 356 kts 226°
2026-04-22 19:03 15.13621 -60.99623 14198 ft 355 kts 225°
2026-04-22 19:03 15.11891 -61.01392 13769 ft 356 kts 225°
2026-04-22 19:03 15.10136 -61.03189 13301 ft 355 kts 225°
2026-04-22 19:03 15.08382 -61.04980 12881 ft 353 kts 225°
2026-04-22 19:04 15.06631 -61.06752 12479 ft 351 kts 225°
2026-04-22 19:04 15.04879 -61.08501 12067 ft 349 kts 224°
2026-04-22 19:04 15.03128 -61.10234 11659 ft 347 kts 225°
2026-04-22 19:04 15.01400 -61.11966 11304 ft 344 kts 225°
2026-04-22 19:05 14.99704 -61.13687 10960 ft 341 kts 225°
2026-04-22 19:05 14.98026 -61.15408 10596 ft 339 kts 226°
2026-04-22 19:05 14.96367 -61.17127 10223 ft 335 kts 226°
2026-04-22 19:05 14.94773 -61.18795 9866 ft 318 kts 226°
2026-04-22 19:06 14.93243 -61.20402 9326 ft 309 kts 226°
2026-04-22 19:06 14.91761 -61.21965 8933 ft 299 kts 226°
2026-04-22 19:06 14.90319 -61.23470 8771 ft 291 kts 225°
2026-04-22 19:07 14.87460 -61.26331 8293 ft 281 kts 224°
2026-04-22 19:07 14.86045 -61.27698 8097 ft 275 kts 222°
2026-04-22 19:07 14.84534 -61.28867 7757 ft 271 kts 208°
2026-04-22 19:07 14.82766 -61.29525 7436 ft 269 kts 189°
2026-04-22 19:08 14.80925 -61.29588 7257 ft 264 kts 173°
2026-04-22 19:08 14.79125 -61.29171 6992 ft 266 kts 161°
2026-04-22 19:08 14.77433 -61.28442 6716 ft 262 kts 156°
2026-04-22 19:08 14.75764 -61.27710 6446 ft 259 kts 158°
2026-04-22 19:09 14.74103 -61.27058 6189 ft 250 kts 160°
2026-04-22 19:09 14.72510 -61.26484 5777 ft 243 kts 161°
2026-04-22 19:09 14.71441 -61.26114 5496 ft 236 kts 161°
2026-04-22 19:09 14.69397 -61.25409 5201 ft 230 kts 161°
2026-04-22 19:10 14.67908 -61.24891 5097 ft 221 kts 160°
2026-04-22 19:10 14.66464 -61.24390 4804 ft 217 kts 160°
2026-04-22 19:10 14.65053 -61.23897 4534 ft 209 kts 159°
2026-04-22 19:10 14.63748 -61.23400 4442 ft 193 kts 158°
2026-04-22 19:11 14.62511 -61.22895 4136 ft 188 kts 156°
2026-04-22 19:11 14.61309 -61.22411 3878 ft 182 kts 158°
2026-04-22 19:11 14.60136 -61.21981 3632 ft 177 kts 159°
2026-04-22 19:11 14.58978 -61.21551 3353 ft 176 kts 158°
2026-04-22 19:12 14.57862 -61.21074 3103 ft 170 kts 153°
2026-04-22 19:12 14.56856 -61.20471 2829 ft 166 kts 141°
2026-04-22 19:12 14.56125 -61.19575 2478 ft 164 kts 115°
2026-04-22 19:12 14.55887 -61.18472 2194 ft 157 kts 88°
2026-04-22 19:13 14.56066 -61.17374 1927 ft 150 kts 74°
2026-04-22 19:13 14.56359 -61.16342 1827 ft 152 kts 74°
2026-04-22 19:13 14.56611 -61.15276 1936 ft 153 kts 79°
2026-04-22 19:13 14.56787 -61.14191 2074 ft 154 kts 80°
2026-04-22 19:14 14.56966 -61.13094 2054 ft 158 kts 80°
2026-04-22 19:14 14.57139 -61.12000 2075 ft 151 kts 81°
2026-04-22 19:14 14.57293 -61.10892 1809 ft 160 kts 82°
2026-04-22 19:14 14.57454 -61.09708 1391 ft 169 kts 82°
2026-04-22 19:15 14.57559 -61.08902 1200 ft 166 kts 82°
2026-04-22 19:15 14.57778 -61.07379 811 ft 157 kts 77°
2026-04-22 19:15 14.58029 -61.06302 655 ft 154 kts 77°
2026-04-22 19:15 14.58259 -61.05235 652 ft 151 kts 77°
2026-04-22 19:16 14.58465 -61.04176 570 ft 150 kts 80°
2026-04-22 19:16 14.58624 -61.03131 390 ft 145 kts 80°
2026-04-22 19:16 14.58797 -61.02112 125 ft 144 kts 77°
2026-04-22 19:16 14.58972 -61.01134 29 ft 126 kts 81°
2026-04-22 19:17 14.59086 -61.00432 20 ft 72 kts 81°
2026-04-22 19:17 14.59137 -61.00113 25 ft 19 kts 80°
2026-04-22 19:17 14.59200 -61.00027 27 ft 17 kts
2026-04-22 19:17 14.59315 -61.00045 25 ft 17 kts 348°
2026-04-22 19:18 14.59374 -61.00085 26 ft 7 kts 300°
2026-04-22 19:18 14.59397 -61.00136 24 ft 8 kts 303°
2026-04-22 19:18 14.59437 -61.00131 26 ft 7 kts 33°
2026-04-22 19:18 14.59466 -61.00111 26 ft 2 kts 34°
2026-04-22 19:19 14.59472 -61.00107 25 ft 0 kts 34°